Weather History for Wasilla, AK

Change the Weather History Date:

Thursday, March 7, 2013

  Actual Average Record
Temperature  
Mean Temperature 36 °F -  
Max Temperature 39 °F 33 °F 47 °F (1984)
Min Temperature 33 °F 15 °F -30 °F (1971)
Degree Days  
Heating Degree Days 29    
Moisture  
Dew Point 15 °F    
Average Humidity 43    
Maximum Humidity 52    
Minimum Humidity 33    
Precipitation  
Precipitation 0.00 in - - ()
Sea Level Pressure  
Sea Level Pressure 29.63 in    
Wind  
Wind Speed 11 mph (ENE)    
Max Wind Speed 20 mph    
Max Gust Speed 28 mph    
Visibility 10 miles    
Events      
Averages and records for this station are not official NWS values.
T = Trace of Precipitation, MM = Missing Value Source: NWS Daily Summary

Daily Weather History Graph

Daily Weather History Graph

Search for Another Location

Airport:

Trip Planner

Search our weather history database for the weather conditions in past years. The results will help you decide how hot, cold, wet, or windy it might be!

Date:

Astronomy

Mar. 07, 2013 Rise Set
Actual Time 7:39 AM AKST 6:40 PM AKST
Civil Twilight 6:55 AM AKST 7:23 PM AKST
Nautical Twilight 6:05 AM AKST 8:14 PM AKST
Astronomical Twilight 5:12 AM AKST 9:07 PM AKST
Moon 5:50 AM AKST (3/7) 1:39 PM AKST (3/7)
Length of Visible Light 12h 27m
Length of Day
11h 00m
Waning Crescent, 19% of the Moon is Illuminated
Mar 7
Waning Crescent
Mar 11
New
Mar 19
First Quarter
Mar 27
Full
Apr 2
Last Quarter

Hourly Weather History & Observations

Time (AKST) Temp. Windchill Dew Point Humidity Pressure Visibility Wind Dir Wind Speed Gust Speed Precip Events Conditions
12:16 AM 33.8 °F 28.6 °F 14.0 °F 44% 29.82 in 10.0 mi ENE 5.8 mph - N/A   Unknown
12:36 AM 33.8 °F 28.6 °F 14.0 °F 44% 29.82 in 10.0 mi East 5.8 mph - N/A   Unknown
12:56 AM 33.8 °F 27.0 °F 14.0 °F 44% 29.83 in 10.0 mi ENE 8.1 mph - N/A   Unknown
1:16 AM 33.8 °F 26.4 °F 14.0 °F 44% 29.82 in 10.0 mi ENE 9.2 mph - N/A   Unknown
1:36 AM 33.8 °F 26.4 °F 14.0 °F 44% 29.82 in 10.0 mi ENE 9.2 mph - N/A   Unknown
1:56 AM 33.8 °F 26.4 °F 14.0 °F 44% 29.81 in 10.0 mi ENE 9.2 mph - N/A   Unknown
2:16 AM 33.8 °F 25.8 °F 14.0 °F 44% 29.81 in 10.0 mi ENE 10.4 mph - N/A   Unknown
2:36 AM 33.8 °F 26.4 °F 14.0 °F 44% 29.79 in 10.0 mi ENE 9.2 mph - N/A   Unknown
2:56 AM 33.8 °F 25.8 °F 14.0 °F 44% 29.78 in 10.0 mi ENE 10.4 mph 18.4 mph N/A   Unknown
3:16 AM 33.8 °F 25.3 °F 15.8 °F 48% 29.77 in 10.0 mi ENE 11.5 mph - N/A   Unknown
3:36 AM 33.8 °F 25.3 °F 14.0 °F 44% 29.75 in 10.0 mi ENE 11.5 mph 18.4 mph N/A   Unknown
3:56 AM 33.8 °F 24.3 °F 14.0 °F 44% 29.74 in 10.0 mi ENE 13.8 mph - N/A   Unknown
4:16 AM 33.8 °F 24.8 °F 14.0 °F 44% 29.73 in 10.0 mi ENE 12.7 mph 18.4 mph N/A   Unknown
4:36 AM 33.8 °F 24.8 °F 12.2 °F 41% 29.72 in 10.0 mi ENE 12.7 mph 17.3 mph N/A   Unknown
4:56 AM 33.8 °F 25.3 °F 14.0 °F 44% 29.71 in 10.0 mi ENE 11.5 mph 18.4 mph N/A   Unknown
5:16 AM 33.8 °F 23.2 °F 12.2 °F 41% 29.71 in 10.0 mi ENE 17.3 mph 24.2 mph N/A   Unknown
5:36 AM 33.8 °F 24.3 °F 12.2 °F 41% 29.70 in 10.0 mi NE 13.8 mph 21.9 mph N/A   Unknown
5:56 AM 33.8 °F 24.3 °F 12.2 °F 41% 29.70 in 10.0 mi ENE 13.8 mph - N/A   Unknown
6:16 AM 33.8 °F 24.8 °F 12.2 °F 41% 29.70 in 10.0 mi NE 12.7 mph 18.4 mph N/A   Unknown
6:36 AM 33.8 °F 26.4 °F 12.2 °F 41% 29.70 in 10.0 mi ENE 9.2 mph - N/A   Unknown
6:56 AM 33.8 °F 24.8 °F 12.2 °F 41% 29.70 in 10.0 mi ENE 12.7 mph - N/A   Unknown
7:16 AM 33.8 °F 26.4 °F 12.2 °F 41% 29.69 in 10.0 mi ENE 9.2 mph - N/A   Unknown
7:36 AM 33.8 °F 27.0 °F 12.2 °F 41% 29.68 in 10.0 mi East 8.1 mph - N/A   Unknown
7:56 AM 33.8 °F 26.4 °F 12.2 °F 41% 29.68 in 10.0 mi ENE 9.2 mph - N/A   Unknown
8:16 AM 33.8 °F 24.8 °F 12.2 °F 41% 29.67 in 10.0 mi ENE 12.7 mph - N/A   Unknown
8:36 AM 33.8 °F 23.9 °F 12.2 °F 41% 29.66 in 10.0 mi ENE 15.0 mph - N/A   Unknown
8:56 AM 33.8 °F 24.3 °F 12.2 °F 41% 29.66 in 10.0 mi ENE 13.8 mph 19.6 mph N/A   Unknown
9:16 AM 33.8 °F 24.3 °F 12.2 °F 41% 29.65 in 10.0 mi ENE 13.8 mph - N/A   Unknown
9:36 AM 33.8 °F 24.8 °F 12.2 °F 41% 29.64 in 10.0 mi ENE 12.7 mph - N/A   Unknown
9:56 AM 33.8 °F 24.8 °F 12.2 °F 41% 29.64 in 10.0 mi ENE 12.7 mph 21.9 mph N/A   Unknown
10:16 AM 33.8 °F 24.8 °F 12.2 °F 41% 29.63 in 10.0 mi ENE 12.7 mph 17.3 mph N/A   Unknown
10:36 AM 33.8 °F 25.3 °F 12.2 °F 41% 29.62 in 10.0 mi ENE 11.5 mph 21.9 mph N/A   Unknown
10:56 AM 35.6 °F 27.5 °F 14.0 °F 41% 29.61 in 10.0 mi ENE 11.5 mph - N/A   Unknown
11:16 AM 35.6 °F 26.6 °F 14.0 °F 41% 29.61 in 10.0 mi ENE 13.8 mph - N/A   Unknown
11:36 AM 35.6 °F 27.5 °F 15.8 °F 44% 29.61 in 10.0 mi ENE 11.5 mph - N/A   Unknown
11:56 AM 35.6 °F 25.5 °F 14.0 °F 41% 29.60 in 10.0 mi ENE 17.3 mph - N/A   Unknown
12:16 PM 35.6 °F 27.5 °F 14.0 °F 41% 29.60 in 10.0 mi ENE 11.5 mph 17.3 mph N/A   Unknown
12:36 PM 35.6 °F 26.6 °F 14.0 °F 41% 29.60 in 10.0 mi ENE 13.8 mph 18.4 mph N/A   Unknown
12:56 PM 35.6 °F 28.0 °F 15.8 °F 44% 29.59 in 10.0 mi ENE 10.4 mph 16.1 mph N/A   Unknown
1:16 PM 37.4 °F 29.8 °F 15.8 °F 41% 29.58 in 10.0 mi ENE 11.5 mph 18.4 mph N/A   Unknown
1:36 PM 37.4 °F 29.8 °F 15.8 °F 41% 29.57 in 10.0 mi ENE 11.5 mph 19.6 mph N/A   Unknown
1:56 PM 37.4 °F 28.9 °F 15.8 °F 41% 29.56 in 10.0 mi ENE 13.8 mph 19.6 mph N/A   Unknown
2:16 PM 37.4 °F 28.5 °F 14.0 °F 38% 29.56 in 10.0 mi ENE 15.0 mph 23.0 mph N/A   Unknown
2:36 PM 37.4 °F 27.2 °F 14.0 °F 38% 29.55 in 10.0 mi ENE 19.6 mph 25.3 mph N/A   Unknown
2:56 PM 35.6 °F 25.5 °F 14.0 °F 41% 29.54 in 10.0 mi NE 17.3 mph 21.9 mph N/A   Unknown
3:16 PM 35.6 °F 32.8 °F 14.0 °F 41% 29.52 in 10.0 mi ENE 3.5 mph - N/A   Unknown
3:36 PM 39.2 °F 33.0 °F 14.0 °F 36% 29.52 in 10.0 mi ENE 9.2 mph 17.3 mph N/A   Unknown
3:56 PM 39.2 °F 29.8 °F 12.2 °F 33% 29.53 in 10.0 mi ENE 18.4 mph 27.6 mph N/A   Unknown
4:16 PM 39.2 °F 30.5 °F 12.2 °F 33% 29.53 in 10.0 mi NNE 16.1 mph 21.9 mph N/A   Unknown
4:36 PM 37.4 °F 29.8 °F 14.0 °F 38% 29.54 in 10.0 mi NNE 11.5 mph 17.3 mph N/A   Unknown
4:56 PM 37.4 °F 32.1 °F 14.0 °F 38% 29.54 in 10.0 mi ESE 6.9 mph - N/A   Unknown
5:16 PM 39.2 °F 31.6 °F 19.4 °F 45% 29.54 in 10.0 mi ENE 12.7 mph 19.6 mph N/A   Unknown
5:36 PM 35.6 °F 26.6 °F 15.8 °F 44% 29.54 in 10.0 mi NE 13.8 mph 17.3 mph N/A   Unknown
5:56 PM 37.4 °F 28.9 °F 17.6 °F 45% 29.55 in 10.0 mi ENE 13.8 mph - N/A   Unknown
6:16 PM 37.4 °F 28.9 °F 19.4 °F 48% 29.55 in 10.0 mi ENE 13.8 mph 18.4 mph N/A   Unknown
6:36 PM 39.2 °F 31.2 °F 19.4 °F 45% 29.56 in 10.0 mi ENE 13.8 mph 21.9 mph N/A   Unknown
6:56 PM 39.2 °F 33.0 °F 19.4 °F 45% 29.56 in 10.0 mi East 9.2 mph 17.3 mph N/A   Unknown
7:16 PM 37.4 °F 30.3 °F 19.4 °F 48% 29.54 in 10.0 mi ENE 10.4 mph 19.6 mph N/A   Unknown
7:36 PM 37.4 °F 30.3 °F 19.4 °F 48% 29.54 in 10.0 mi ENE 10.4 mph - N/A   Unknown
7:56 PM 37.4 °F 30.8 °F 21.2 °F 52% 29.54 in 10.0 mi East 9.2 mph - N/A   Unknown
8:16 PM 39.2 °F 31.6 °F 21.2 °F 49% 29.55 in 10.0 mi ENE 12.7 mph 21.9 mph N/A   Unknown
8:36 PM 39.2 °F 31.6 °F 19.4 °F 45% 29.54 in 10.0 mi East 12.7 mph 20.7 mph N/A   Unknown
8:56 PM 39.2 °F 33.0 °F 19.4 °F 45% 29.54 in 10.0 mi ENE 9.2 mph 19.6 mph N/A   Unknown
9:16 PM 39.2 °F 33.6 °F 21.2 °F 49% 29.54 in 10.0 mi NE 8.1 mph 17.3 mph N/A   Unknown
9:36 PM 39.2 °F 31.6 °F 21.2 °F 49% 29.54 in 10.0 mi East 12.7 mph 19.6 mph N/A   Unknown
9:56 PM 39.2 °F 32.0 °F 21.2 °F 49% 29.54 in 10.0 mi East 11.5 mph 19.6 mph N/A   Unknown
10:16 PM 39.2 °F 32.0 °F 21.2 °F 49% 29.55 in 10.0 mi East 11.5 mph 23.0 mph N/A   Unknown
10:36 PM 39.2 °F 31.6 °F 21.2 °F 49% 29.55 in 10.0 mi East 12.7 mph 25.3 mph N/A   Unknown
10:56 PM 39.2 °F 34.2 °F 21.2 °F 49% 29.56 in 10.0 mi East 6.9 mph - N/A   Unknown
11:16 PM 39.2 °F 31.2 °F 21.2 °F 49% 29.55 in 10.0 mi East 13.8 mph 18.4 mph N/A   Unknown
11:36 PM 39.2 °F 31.6 °F 21.2 °F 49% 29.56 in 10.0 mi East 12.7 mph 21.9 mph N/A   Unknown
11:56 PM 39.2 °F 31.2 °F 23.0 °F 52% 29.55 in 10.0 mi East 13.8 mph 23.0 mph N/A   Unknown